EZY71RM EGGW-EDDB

Flight info

Callsign EZY71RM
Flight time 1h 23m
Altitude 37000
Route MATCH Q295 BRAIN M197 REDFA DCT TACHA DCT NIE DCT BATEL T207 OGBER
Aircraft A320/M-SDE3FGHIRWY/LB1

Departure

Time 2026-05-07 11:51
Airport London Luton Airport (EGGW)

Arrival

Time 2026-05-07 13:15
Airport Berlin Brandenburg Airport (EDDB)
Time Latitude Longitude Altitude Speed Heading
2026-05-07 11:14 51.88051 -0.37785 523 ft 0 kts 128°
2026-05-07 11:43 51.88058 -0.37800 523 ft 2 kts 128°
2026-05-07 11:43 51.88069 -0.37821 523 ft 2 kts 130°
2026-05-07 11:44 51.88080 -0.37841 523 ft 2 kts 146°
2026-05-07 11:44 51.88094 -0.37841 523 ft 2 kts 214°
2026-05-07 11:44 51.88107 -0.37825 523 ft 2 kts 225°
2026-05-07 11:44 51.88116 -0.37811 523 ft 1 kts 219°
2026-05-07 11:45 51.88117 -0.37809 523 ft 0 kts 219°
2026-05-07 11:46 51.88116 -0.37810 523 ft 1 kts 219°
2026-05-07 11:46 51.88090 -0.37844 523 ft 8 kts 218°
2026-05-07 11:46 51.88030 -0.37919 523 ft 13 kts 218°
2026-05-07 11:47 51.87957 -0.37999 523 ft 13 kts 202°
2026-05-07 11:47 51.87869 -0.38005 523 ft 13 kts 160°
2026-05-07 11:47 51.87818 -0.37948 523 ft 14 kts 136°
2026-05-07 11:47 51.87766 -0.37796 523 ft 16 kts 115°
2026-05-07 11:48 51.87715 -0.37623 518 ft 19 kts 116°
2026-05-07 11:48 51.87639 -0.37473 522 ft 16 kts 156°
2026-05-07 11:48 51.87529 -0.37481 521 ft 17 kts 212°
2026-05-07 11:48 51.87485 -0.37649 523 ft 16 kts 254°
2026-05-07 11:49 51.87453 -0.37828 522 ft 17 kts 254°
2026-05-07 11:49 51.87418 -0.38005 524 ft 14 kts 242°
2026-05-07 11:49 51.87336 -0.38090 522 ft 15 kts 200°
2026-05-07 11:49 51.87247 -0.38089 524 ft 11 kts 128°
2026-05-07 11:50 51.87262 -0.38003 524 ft 0 kts 73°
2026-05-07 11:50 51.87266 -0.37981 524 ft 8 kts 73°
2026-05-07 11:51 51.87331 -0.37606 521 ft 73 kts 75°
2026-05-07 11:51 51.87528 -0.36461 523 ft 136 kts 74°
2026-05-07 11:51 51.87805 -0.34838 943 ft 148 kts 76°
2026-05-07 11:51 51.88086 -0.33227 1643 ft 149 kts 78°
2026-05-07 11:52 51.88384 -0.31504 1996 ft 171 kts 77°
2026-05-07 11:52 51.88718 -0.29546 2337 ft 194 kts 76°
2026-05-07 11:52 51.89112 -0.27256 2604 ft 224 kts 77°
2026-05-07 11:52 51.89514 -0.24715 3050 ft 247 kts 84°
2026-05-07 11:53 51.89236 -0.21938 3767 ft 254 kts 121°
2026-05-07 11:53 51.87993 -0.19991 4658 ft 258 kts 152°
2026-05-07 11:53 51.86365 -0.18741 5586 ft 261 kts 156°
2026-05-07 11:53 51.84689 -0.17554 6530 ft 264 kts 157°
2026-05-07 11:54 51.82987 -0.16370 7403 ft 268 kts 157°
2026-05-07 11:54 51.81270 -0.15167 8267 ft 271 kts 157°
2026-05-07 11:54 51.79514 -0.13924 9061 ft 278 kts 156°
2026-05-07 11:54 51.77732 -0.12642 9892 ft 283 kts 153°
2026-05-07 11:55 51.76182 -0.10689 10648 ft 287 kts 127°
2026-05-07 11:55 51.75372 -0.07702 11434 ft 293 kts 98°
2026-05-07 11:55 51.75422 -0.04382 11882 ft 310 kts 84°
2026-05-07 11:55 51.75698 -0.00799 12202 ft 330 kts 83°
2026-05-07 11:56 51.76025 0.02910 12826 ft 338 kts 82°
2026-05-07 11:56 51.76370 0.06681 13561 ft 342 kts 82°
2026-05-07 11:56 51.76716 0.10520 14260 ft 347 kts 82°
2026-05-07 11:56 51.77057 0.14435 14919 ft 351 kts 83°
2026-05-07 11:57 51.77383 0.18318 15550 ft 355 kts 83°
2026-05-07 11:57 51.77707 0.22305 16183 ft 359 kts 83°
2026-05-07 11:57 51.78029 0.26326 16831 ft 363 kts 83°
2026-05-07 11:57 51.78351 0.30348 17452 ft 367 kts 83°
2026-05-07 11:58 51.78681 0.34460 18083 ft 371 kts 83°
2026-05-07 11:58 51.79014 0.38610 18662 ft 375 kts 83°
2026-05-07 11:58 51.79350 0.42799 19213 ft 378 kts 83°
2026-05-07 11:58 51.79688 0.47033 19773 ft 381 kts 83°
2026-05-07 11:59 51.80026 0.51293 20338 ft 384 kts 83°
2026-05-07 11:59 51.80362 0.55588 20900 ft 387 kts 84°
2026-05-07 11:59 51.80699 0.59931 21467 ft 390 kts 84°
2026-05-07 11:59 51.81042 0.64291 22031 ft 393 kts 82°
2026-05-07 12:00 51.81631 0.68583 22589 ft 396 kts 76°
2026-05-07 12:00 51.82317 0.72973 23150 ft 399 kts 77°
2026-05-07 12:00 51.82990 0.77329 23684 ft 403 kts 77°
2026-05-07 12:00 51.83674 0.81760 24145 ft 405 kts 77°
2026-05-07 12:01 51.84405 0.86179 24607 ft 407 kts 75°
2026-05-07 12:01 51.85197 0.90586 25080 ft 409 kts 74°
2026-05-07 12:01 51.86029 0.95025 25523 ft 411 kts 74°
2026-05-07 12:01 51.86859 0.99399 25963 ft 413 kts 73°
2026-05-07 12:02 51.87694 1.03859 26388 ft 415 kts 74°
2026-05-07 12:02 51.88521 1.08352 26797 ft 417 kts 75°
2026-05-07 12:02 51.89340 1.12863 27225 ft 418 kts 75°
2026-05-07 12:02 51.90154 1.17397 27647 ft 420 kts 75°
2026-05-07 12:03 51.90969 1.21946 28064 ft 421 kts 75°
2026-05-07 12:03 51.91785 1.26518 28464 ft 422 kts 75°
2026-05-07 12:03 51.92599 1.31095 28850 ft 424 kts 74°
2026-05-07 12:03 51.93418 1.35700 29243 ft 425 kts 75°
2026-05-07 12:04 51.94237 1.40308 29618 ft 427 kts 74°
2026-05-07 12:04 51.95058 1.44939 29976 ft 428 kts 75°
2026-05-07 12:04 51.95880 1.49602 30292 ft 430 kts 74°
2026-05-07 12:04 51.96704 1.54285 30542 ft 433 kts 75°
2026-05-07 12:05 51.97530 1.58987 30806 ft 435 kts 75°
2026-05-07 12:05 51.98358 1.63718 31050 ft 437 kts 75°
2026-05-07 12:05 51.99186 1.68466 31307 ft 439 kts 75°
2026-05-07 12:05 51.99991 1.73260 31539 ft 441 kts 76°
2026-05-07 12:06 52.00754 1.78074 31859 ft 440 kts 77°
2026-05-07 12:06 52.01490 1.82903 32195 ft 440 kts 77°
2026-05-07 12:06 52.02215 1.87727 32527 ft 440 kts 76°
2026-05-07 12:06 52.02934 1.92480 32848 ft 439 kts 77°
2026-05-07 12:07 52.03666 1.97291 33271 ft 436 kts 76°
2026-05-07 12:07 52.04407 2.02127 33655 ft 435 kts 76°
2026-05-07 12:07 52.05129 2.06838 33991 ft 435 kts 76°
2026-05-07 12:07 52.05858 2.11608 34289 ft 434 kts 76°
2026-05-07 12:08 52.06586 2.16374 34514 ft 435 kts 77°
2026-05-07 12:08 52.07318 2.21157 34755 ft 436 kts 76°
2026-05-07 12:08 52.08043 2.25940 34967 ft 437 kts 77°
2026-05-07 12:08 52.08767 2.30753 35182 ft 438 kts 77°
2026-05-07 12:09 52.09489 2.35562 35394 ft 439 kts 77°
2026-05-07 12:09 52.10208 2.40384 35593 ft 440 kts 77°
2026-05-07 12:09 52.10928 2.45220 35794 ft 440 kts 77°
2026-05-07 12:09 52.11663 2.50070 35963 ft 442 kts 76°
2026-05-07 12:10 52.12488 2.54894 36140 ft 443 kts 73°
2026-05-07 12:10 52.13396 2.59686 36342 ft 444 kts 72°
2026-05-07 12:10 52.14349 2.64468 36534 ft 444 kts 72°
2026-05-07 12:10 52.15313 2.69243 36737 ft 444 kts 72°
2026-05-07 12:11 52.16267 2.74036 36925 ft 445 kts 72°
2026-05-07 12:11 52.17201 2.78844 37082 ft 445 kts 73°
2026-05-07 12:11 52.18116 2.83650 37120 ft 443 kts 73°
2026-05-07 12:12 52.19896 2.93197 37110 ft 442 kts 73°
2026-05-07 12:12 52.21670 3.02798 37104 ft 443 kts 73°
2026-05-07 12:13 52.23451 3.12424 37106 ft 443 kts 73°
2026-05-07 12:13 52.25230 3.22042 37106 ft 442 kts 75°
2026-05-07 12:14 52.26296 3.31886 37111 ft 441 kts 83°
2026-05-07 12:14 52.27140 3.41820 37112 ft 441 kts 83°
2026-05-07 12:15 52.27979 3.51748 37104 ft 442 kts 83°
2026-05-07 12:15 52.28814 3.61701 37105 ft 442 kts 83°
2026-05-07 12:16 52.29642 3.71656 37099 ft 443 kts 83°
2026-05-07 12:16 52.30463 3.81635 37101 ft 443 kts 83°
2026-05-07 12:17 52.31273 3.91611 37105 ft 443 kts 83°
2026-05-07 12:17 52.32079 4.01597 37097 ft 443 kts 83°
2026-05-07 12:18 52.32875 4.11546 37097 ft 444 kts 83°
2026-05-07 12:18 52.33667 4.21564 37091 ft 444 kts 83°
2026-05-07 12:19 52.34447 4.31596 37097 ft 444 kts 83°
2026-05-07 12:19 52.35220 4.41690 37093 ft 445 kts 83°
2026-05-07 12:20 52.35981 4.51730 37087 ft 445 kts 84°
2026-05-07 12:20 52.36736 4.61775 37076 ft 445 kts 84°
2026-05-07 12:21 52.37481 4.71753 37093 ft 445 kts 83°
2026-05-07 12:21 52.38229 4.81807 37089 ft 444 kts 84°
2026-05-07 12:22 52.38964 4.91866 37090 ft 445 kts 84°
2026-05-07 12:22 52.39683 5.01946 37086 ft 445 kts 84°
2026-05-07 12:23 52.40395 5.12010 37080 ft 445 kts 84°
2026-05-07 12:23 52.41097 5.22008 37087 ft 445 kts 84°
2026-05-07 12:24 52.41789 5.32078 37088 ft 444 kts 84°
2026-05-07 12:24 52.42475 5.42132 37085 ft 444 kts 84°
2026-05-07 12:25 52.43157 5.52205 37076 ft 445 kts 84°
2026-05-07 12:25 52.43824 5.62285 37076 ft 445 kts 84°
2026-05-07 12:26 52.44377 5.70740 37077 ft 446 kts 84°
2026-05-07 12:26 52.45033 5.80853 37067 ft 446 kts 84°
2026-05-07 12:27 52.45679 5.90909 37069 ft 446 kts 84°
2026-05-07 12:27 52.46316 6.01035 37064 ft 446 kts 85°
2026-05-07 12:28 52.46948 6.11165 37065 ft 446 kts 85°
2026-05-07 12:28 52.47570 6.21282 37066 ft 446 kts 85°
2026-05-07 12:29 52.48181 6.31419 37063 ft 446 kts 85°
2026-05-07 12:29 52.48786 6.41552 37058 ft 446 kts 85°
2026-05-07 12:30 52.49388 6.51671 37053 ft 446 kts 85°
2026-05-07 12:30 52.49977 6.61813 37055 ft 446 kts 85°
2026-05-07 12:31 52.50556 6.71892 37052 ft 447 kts 85°
2026-05-07 12:31 52.51131 6.82114 37054 ft 447 kts 85°
2026-05-07 12:32 52.51688 6.92279 37055 ft 447 kts 85°
2026-05-07 12:32 52.52241 7.02392 37052 ft 447 kts 85°
2026-05-07 12:33 52.53061 7.17639 37053 ft 446 kts 85°
2026-05-07 12:33 52.53589 7.27806 37055 ft 446 kts 85°
2026-05-07 12:34 52.54112 7.37981 37059 ft 446 kts 86°
2026-05-07 12:34 52.54623 7.48140 37064 ft 446 kts 86°
2026-05-07 12:35 52.55133 7.58300 37061 ft 446 kts 85°
2026-05-07 12:35 52.55630 7.68461 37068 ft 446 kts 86°
2026-05-07 12:36 52.56111 7.78554 37065 ft 446 kts 86°
2026-05-07 12:36 52.56587 7.88720 37079 ft 446 kts 86°
2026-05-07 12:37 52.57060 7.98895 37081 ft 446 kts 86°
2026-05-07 12:37 52.57525 8.09068 37078 ft 446 kts 86°
2026-05-07 12:38 52.57975 8.19232 37086 ft 446 kts 86°
2026-05-07 12:38 52.58420 8.29411 37090 ft 446 kts 86°
2026-05-07 12:39 52.58859 8.39579 37092 ft 446 kts 86°
2026-05-07 12:39 52.59283 8.49678 37084 ft 446 kts 87°
2026-05-07 12:40 52.59698 8.59928 37082 ft 446 kts 86°
2026-05-07 12:40 52.60105 8.70092 37079 ft 446 kts 87°
2026-05-07 12:41 52.60509 8.80196 37081 ft 446 kts 87°
2026-05-07 12:41 52.60896 8.90069 37079 ft 446 kts 87°
2026-05-07 12:43 52.60851 8.93033 37041 ft 443 kts 98°
2026-05-07 12:43 52.60621 9.03123 37045 ft 443 kts 85°
2026-05-07 12:44 52.61450 9.13180 37056 ft 444 kts 82°
2026-05-07 12:44 52.62196 9.23335 37058 ft 444 kts 86°
2026-05-07 12:45 52.62572 9.33454 37055 ft 444 kts 88°
2026-05-07 12:45 52.62347 9.43590 37072 ft 443 kts 96°
2026-05-07 12:46 52.61906 9.53721 37080 ft 444 kts 95°
2026-05-07 12:46 52.61518 9.63896 37085 ft 444 kts 94°
2026-05-07 12:47 52.61120 9.74023 37089 ft 444 kts 95°
2026-05-07 12:47 52.60698 9.84174 37092 ft 444 kts 95°
2026-05-07 12:48 52.60265 9.94240 37094 ft 444 kts 95°
2026-05-07 12:48 52.59822 10.04372 37088 ft 444 kts 95°
2026-05-07 12:49 52.59364 10.14568 37088 ft 444 kts 95°
2026-05-07 12:49 52.58910 10.24625 37085 ft 444 kts 95°
2026-05-07 12:50 52.58442 10.34763 36825 ft 444 kts 95°
2026-05-07 12:50 52.58205 10.39805 36407 ft 441 kts 95°
2026-05-07 12:50 52.57967 10.44805 35875 ft 437 kts 95°
2026-05-07 12:51 52.57728 10.49776 35357 ft 434 kts 95°
2026-05-07 12:51 52.57492 10.54710 34842 ft 432 kts 95°
2026-05-07 12:51 52.57256 10.59615 34315 ft 429 kts 95°
2026-05-07 12:51 52.57016 10.64562 33742 ft 427 kts 95°
2026-05-07 12:52 52.56777 10.69399 33233 ft 423 kts 95°
2026-05-07 12:52 52.56535 10.74198 32728 ft 419 kts 95°
2026-05-07 12:52 52.56294 10.78956 32216 ft 417 kts 95°
2026-05-07 12:52 52.56054 10.83693 31725 ft 414 kts 95°
2026-05-07 12:53 52.55819 10.88344 31245 ft 411 kts 95°
2026-05-07 12:53 52.55582 10.93014 30762 ft 408 kts 95°
2026-05-07 12:53 52.55347 10.97615 30401 ft 398 kts 95°
2026-05-07 12:53 52.55115 11.02108 29602 ft 392 kts 95°
2026-05-07 12:54 52.54883 11.06527 28793 ft 385 kts 96°
2026-05-07 12:54 52.54726 11.10886 28041 ft 379 kts 90°
2026-05-07 12:54 52.54827 11.15190 27241 ft 376 kts 89°
2026-05-07 12:54 52.54929 11.19490 26751 ft 375 kts 89°
2026-05-07 12:55 52.55028 11.23755 26299 ft 373 kts 89°
2026-05-07 12:55 52.54981 11.27991 25841 ft 369 kts 101°
2026-05-07 12:55 52.54292 11.32024 25440 ft 366 kts 111°
2026-05-07 12:55 52.53412 11.35956 25043 ft 366 kts 113°
2026-05-07 12:56 52.52442 11.39804 24658 ft 364 kts 115°
2026-05-07 12:56 52.51411 11.43615 24269 ft 363 kts 116°
2026-05-07 12:56 52.50367 11.47380 23891 ft 362 kts 115°
2026-05-07 12:56 52.49323 11.51137 23488 ft 360 kts 115°
2026-05-07 12:57 52.48294 11.54876 23083 ft 357 kts 115°
2026-05-07 12:57 52.47276 11.58619 22715 ft 352 kts 115°
2026-05-07 12:57 52.46300 11.62237 22282 ft 350 kts 115°
2026-05-07 12:57 52.45320 11.65888 21841 ft 348 kts 114°
2026-05-07 12:58 52.44345 11.69510 21406 ft 346 kts 115°
2026-05-07 12:58 52.43373 11.73114 20974 ft 345 kts 115°
2026-05-07 12:58 52.42405 11.76699 20544 ft 344 kts 115°
2026-05-07 12:58 52.41439 11.80277 20120 ft 343 kts 114°
2026-05-07 12:59 52.40475 11.83841 19695 ft 342 kts 115°
2026-05-07 12:59 52.39505 11.87404 19275 ft 341 kts 115°
2026-05-07 12:59 52.38539 11.90952 18852 ft 341 kts 115°
2026-05-07 12:59 52.37574 11.94503 18429 ft 340 kts 115°
2026-05-07 13:00 52.36610 11.98042 17976 ft 340 kts 114°
2026-05-07 13:00 52.35649 12.01561 17555 ft 338 kts 114°
2026-05-07 13:00 52.34691 12.05054 17151 ft 335 kts 114°
2026-05-07 13:00 52.33738 12.08527 16743 ft 334 kts 114°
2026-05-07 13:01 52.32789 12.11978 16348 ft 332 kts 113°
2026-05-07 13:01 52.31857 12.15366 15958 ft 331 kts 113°
2026-05-07 13:01 52.30913 12.18796 15563 ft 330 kts 113°
2026-05-07 13:01 52.29972 12.22216 15170 ft 329 kts 113°
2026-05-07 13:02 52.29030 12.25621 14784 ft 328 kts 112°
2026-05-07 13:02 52.28409 12.27866 14527 ft 327 kts 113°
2026-05-07 13:02 52.27472 12.31243 14138 ft 325 kts 113°
2026-05-07 13:02 52.26539 12.34595 13739 ft 324 kts 112°
2026-05-07 13:03 52.25612 12.37928 13326 ft 321 kts 112°
2026-05-07 13:03 52.24692 12.41233 12939 ft 318 kts 113°
2026-05-07 13:03 52.23781 12.44509 12550 ft 315 kts 113°
2026-05-07 13:03 52.22878 12.47752 12162 ft 313 kts 112°
2026-05-07 13:04 52.21978 12.50972 11778 ft 311 kts 112°
2026-05-07 13:04 52.21083 12.54168 11374 ft 309 kts 113°
2026-05-07 13:04 52.20192 12.57341 11050 ft 304 kts 113°
2026-05-07 13:04 52.19315 12.60461 10638 ft 303 kts 113°
2026-05-07 13:05 52.18448 12.63589 10195 ft 303 kts 110°
2026-05-07 13:05 52.17951 12.66882 9888 ft 295 kts 94°
2026-05-07 13:05 52.18017 12.70142 9693 ft 283 kts 80°
2026-05-07 13:05 52.18560 12.73182 9067 ft 279 kts 68°
2026-05-07 13:06 52.19287 12.76099 8605 ft 276 kts 68°
2026-05-07 13:06 52.19996 12.78971 8206 ft 272 kts 68°
2026-05-07 13:06 52.20687 12.81790 7836 ft 270 kts 68°
2026-05-07 13:06 52.21379 12.84619 7450 ft 267 kts 68°
2026-05-07 13:07 52.22066 12.87424 7070 ft 265 kts 68°
2026-05-07 13:07 52.22747 12.90209 6675 ft 264 kts 68°
2026-05-07 13:07 52.23434 12.93038 6264 ft 267 kts 66°
2026-05-07 13:07 52.24124 12.95879 5844 ft 271 kts 68°
2026-05-07 13:08 52.24787 12.98696 5663 ft 264 kts 68°
2026-05-07 13:08 52.25442 13.01417 5584 ft 249 kts 68°
2026-05-07 13:08 52.26052 13.03925 5494 ft 227 kts 68°
2026-05-07 13:08 52.26620 13.06263 5397 ft 216 kts 67°
2026-05-07 13:09 52.27165 13.08509 5294 ft 208 kts 68°
2026-05-07 13:09 52.27694 13.10691 5100 ft 207 kts 68°
2026-05-07 13:09 52.28225 13.12887 4851 ft 210 kts 69°
2026-05-07 13:09 52.28765 13.15119 4560 ft 209 kts 69°
2026-05-07 13:10 52.29296 13.17318 4267 ft 208 kts 68°
2026-05-07 13:10 52.29822 13.19500 3978 ft 205 kts 68°
2026-05-07 13:10 52.30329 13.21606 3702 ft 197 kts 68°
2026-05-07 13:10 52.30819 13.23640 3450 ft 188 kts 67°
2026-05-07 13:11 52.31286 13.25582 3201 ft 179 kts 67°
2026-05-07 13:11 52.31741 13.27476 2958 ft 175 kts 67°
2026-05-07 13:11 52.32173 13.29273 2757 ft 169 kts 67°
2026-05-07 13:11 52.32605 13.31072 2501 ft 165 kts 66°
2026-05-07 13:12 52.33012 13.32773 2265 ft 159 kts 67°
2026-05-07 13:12 52.33409 13.34428 2048 ft 155 kts 68°
2026-05-07 13:12 52.33800 13.36061 1840 ft 153 kts 66°
2026-05-07 13:12 52.34183 13.37663 1597 ft 147 kts 68°
2026-05-07 13:13 52.34542 13.39168 1415 ft 140 kts 67°
2026-05-07 13:13 52.34896 13.40647 1232 ft 138 kts 66°
2026-05-07 13:13 52.35242 13.42099 1035 ft 137 kts 67°
2026-05-07 13:13 52.35586 13.43537 843 ft 135 kts 67°
2026-05-07 13:14 52.35927 13.44976 650 ft 138 kts 67°
2026-05-07 13:14 52.36270 13.46418 459 ft 134 kts 70°
2026-05-07 13:14 52.36608 13.47848 284 ft 135 kts 67°
2026-05-07 13:14 52.36948 13.49258 156 ft 125 kts 67°
2026-05-07 13:15 52.37205 13.50329 156 ft 76 kts 68°
2026-05-07 13:15 52.37314 13.50873 156 ft 28 kts 91°
2026-05-07 13:15 52.37291 13.51155 157 ft 25 kts 100°
2026-05-07 13:15 52.37250 13.51331 158 ft 16 kts 156°
2026-05-07 13:16 52.37182 13.51231 158 ft 14 kts 248°
2026-05-07 13:16 52.37148 13.51092 158 ft 13 kts 249°
2026-05-07 13:16 52.37115 13.50941 158 ft 15 kts 251°
2026-05-07 13:16 52.37071 13.50769 158 ft 17 kts 248°
2026-05-07 13:17 52.37026 13.50571 158 ft 20 kts 252°
2026-05-07 13:17 52.36973 13.50351 159 ft 22 kts 246°
2026-05-07 13:17 52.36905 13.50138 158 ft 19 kts 209°
2026-05-07 13:17 52.36796 13.50174 159 ft 16 kts 154°
2026-05-07 13:18 52.36688 13.50219 159 ft 16 kts 157°
2026-05-07 13:18 52.36592 13.50306 159 ft 16 kts 153°
2026-05-07 13:18 52.36500 13.50369 159 ft 6 kts 158°
2026-05-07 13:18 52.36468 13.50408 159 ft 7 kts 134°
2026-05-07 13:19 52.36457 13.50499 159 ft 9 kts 85°
2026-05-07 13:19 52.36471 13.50570 159 ft 0 kts 69°